Location: El Carrer d�Abaix
(41.5797°N, 2.1791°E)
Time: 10:54:31
(UTC+00:00)

STARLINK-1378 - Pass Details

Date: 03 October 2020
Orbit: 549 x 550 km, 53.0° (Epoch: 21 October)

Event Time Altitude Azimuth Distance (km) Brightness Sun altitude
Exits shadow 03:12:40 25° 32° (NNE) 1,117 5.6 -29.7°
Drops below altitude 10° 03:14:38 10° 45° (NE) 1,824 7.1 -29.4°
Sets 03:16:56 0° 50° (NE) 2,720 8.3 -29.0°
